Regional Weather Roundup
Issued by NWS Midland/Odessa, TX

Skip options and go directly to product.
Home | Oldest Version | Previous Version | Current Version | All | Text Only | Save Text | Print | Product List | Glossary On

Skip product version selection by date and time.   
767
ASUS44 KMAF 011410
RWRMAF
MIDLAND AREA WEATHER ROUNDUP
NATIONAL WEATHER SERVICE MIDLAND TX
900 AM CDT SAT NOV 01 2014

...IN SOUTHWEST TEXAS AND SOUTHEAST NEW MEXICO...

CITY           SKY/WX    TMP DP  RH WIND       PRES   REMARKS
ALPINE         CLEAR     52  39  60 SW10      30.34R
ANDREWS        FAIR      44  34  69 SE8       30.30R WCI  39
ARTESIA        NOT AVBL
BIG SPRING     MOSUNNY   47  34  60 SE3       30.34R
CARLSBAD       PTCLDY    46  34  62 SE6       30.24S
DRYDEN           N/A     54  40  59 E10       30.31R
FORT STOCKTON  CLEAR     52  37  56 S21G29    30.25R
GUAD PASS      PTCLDY    51  39  63 E10       30.27S
HOBBS          CLEAR     41  32  70 E6        30.28S WCI  37
MARFA          CLEAR     43  37  81 CALM      30.32R
MIDLAND AIRPK  MOSUNNY   47  35  63 SE7       30.32R
MIDLAND INTL   MOSUNNY   47  34  60 SE14      30.30R
ODESSA         MOCLDY    48  34  58 SE15      30.30R
PECOS          CLEAR     50  33  51 E9        30.24R
PRESIDIO       FAIR      60  42  52 NE10      30.23S
SEMINOLE       CLEAR     40  33  75 E6        30.30R WCI  36
SNYDER         SUNNY     42  35  76 CALM      30.34R
WINK           MOCLDY    50  31  48 SE16      30.24S
$$
...OTHER STATIONS IN TEXAS...

CITY           SKY/WX    TMP DP  RH WIND       PRES   REMARKS
ABILENE        SUNNY     43  33  68 SE9       30.37R WCI  38
AMARILLO       CLEAR     37  28  70 S20       30.27S WCI  27
AUSTIN         MOSUNNY   48  40  73 NE9       30.40R
BROWNSVILLE    MOSUNNY   64  59  83 N6        30.28R
CORPUS CHRISTI MOSUNNY   57  50  77 NE17      30.32R
DALLAS FTW     MOSUNNY   44  32  62 E9        30.44R WCI  39
DEL RIO        SUNNY     53  42  66 SE7       30.36R
EL PASO        MOCLDY    59  40  49 CALM      30.15R
HOUSTON INT    SUNNY     50  36  58 NE9       30.42R
LUBBOCK        MOCLDY    40  31  70 SE9       30.29S WCI  34
SAN ANGELO     SUNNY     41  33  73 SE3       30.34S
SAN ANTONIO    MOSUNNY   52  39  61 NE8       30.38R
WACO           SUNNY     43  35  73 CALM      30.44R
WICHITA FALLS  NOT AVBL
$$
...OTHER LOCATIONS IN NEW MEXICO...

CITY           SKY/WX    TMP DP  RH WIND       PRES   REMARKS
ALAMAGORDO     NOT AVBL
ALBUQUERQUE    MOCLDY    52  40  63 CALM      30.18S
CANNON AFB     CLEAR     40  31  71 S7        30.27R WCI  35
CLOVIS         PTCLDY    37  30  75 S8        30.29R WCI  31
HOLLOMAN AFB   PTCLDY    49  36  61 N5        30.17R
ROSWELL        CLEAR     43  35  73 S3        30.25R
RUIDOSO        PTCLDY    41  32  70 CALM      30.28S
SANTA FE       PTCLDY    40  30  67 CALM      30.21S
TRUTH OR CONSE MOCLDY    50  39  66 CALM      30.16R
TUCUMCARI      CLEAR     47  30  51 SW16      30.22S
$$

USA.gov is the U.S. government's official web portal to all federal, state and local government web resources and services.